COSMOS 2520 (42907 NORAD) Tracking and Keplerian Element Data

This shows tracking and keplerian element data for the satellite.

Feedback or suggestion? Click here.




ElementValue
Catalog42907
NameCOSMOS 2520
Epoch Orbit769
Epoch Day262.16100925
Epoch Year2019
RAAN133.3601
Inclination0.0223
Eccentricity0.0002422
Argument of Perigee245.6835
Mean Anonmoly81.5824
Mean Motion1.00273015
Decay Rate1.34E-06
L11 42907U 17046A 19262.16100925 .00000134 00000-0 00000+0 0 9991
L22 42907 0.0223 133.3601 0002422 245.6835 81.5824 1.00273015 7690

Live tracking and technical data element details for COSMOS 2520 (NORAD 42907). COSMOS 2520 can be tracked NOW for your location showing map with azimuth and elevation plus other details from your city location.

Track the satellite on the map from your city or location and see movement details for azimuth, elevation, latitude, longitude, range, height, and movement on the map or in text.







IsCatalogInMostPopularTable: catalog: 42907, numindb: 308
Update: records affected: 1



GetName: 42907 COSMOS 2520

Hit Count: updated at: Thu, 19 Sep 2019 17:37:40 GMT